Retour au catalogue

FENGYUN 1C DEB

ActifSSO
NORAD 30338·DEBRIS·🇨🇳 China

Lancé May 10, 1999 depuis Taiyuan Satellite Launch Center

Loading…

Prochains Passages (prochaines 24 heures)

TLE

FraisSource: Space-Track

Époque: Sep 14, 2026, 11:56 UTC

1 30338U 99025AAZ 26257.49756691  .00003730  00000-0  62033-3 0  9991
2 30338  98.4338 332.7475 0263682  73.8417 301.8629 14.50243036 21394

Suivez FENGYUN 1C DEB en temps réel avec AllMySat

Download on the App Store